Tracking 30995 objects as of 7-Jul-2025
HD Live streaming from Space Station
objects crossing your sky now

STARLINK-11604

Track STARLINK-11604 now!
10-day predictions
STARLINK-11604 is classified as:


NORAD ID: 63133
Int'l Code: 2025-043B
Perigee: 361.8 km
Apogee: 365.0 km
Inclination: 43.0 °
Period: 91.7 minutes
Semi major axis: 6734 km
RCS: Unknown
Launch date: March 2, 2024
Source: United States (US)
Launch site: AIR FORCE EASTERN TEST RANGE (AFETR)
Your satellite tracking list
SL-6 R/B(2)
Track 1 satellite(s)




NASA's NSSDC Master Catalog

Two Line Element Set (TLE):
1 63133U 25043B   25186.64412072  .00227728  00000-0  17237-2 0  9998
2 63133  43.0006 300.2462 0002412 297.2637  62.7984 15.70926819 20492
Source of the keplerian elements: AFSPC